OneWeb SL0366

operational
NORAD ID: 49292 Int'l Des: 2021-090 Owner: ONEWEBN Country: UK Constellation: oneweb
LEOCIRCULARPOLARONEWEB_TYPE

Über OneWeb SL0366

Beschreibung wird geladen...

Live-Position

3D-Globus wird geladen...

Nächste Überflüge

Höhenverlauf

Altitude vs Time

uPlot chart will show altitude changes over time

Zweizeiliger Elementsatz

1 49292U 21090P 25258.19397840 -.00000157 00000-0 -45755-3 0 9995
2 49292 87.9085 344.4751 0001937 99.3055 260.8294 13.14503427191433
Epoch: 15. Sept. 2025 • Age: 12 hours

Aktueller Status

Höhe 1223.4 km
Geschwindigkeit 7.24 km/s
Subsatellitenpunkt -43.54°S, 79.78°W
Startdatum 14. Okt. 2021
Alter 3.9 years
Typ internet

Technische Details

Klassifizierung Payload
Masse 148.00 kg
Trockenmasse 140.00 kg
Gesamtmasse 148.00 kg
Länge 1.30 m
Durchmesser 1.00 m
Spannweite 5.00 m
Form Trapezoid+2 pan
Hersteller ONEWUS
Bus-Typ ARROW
Phasenstatus In Orbit
Besitzer/Staat ONEWEBN/UK

Große Konstellationen

Loading constellations...